Theta_e
307 301 303 308 320 322 326 328 326 324 331 328 331 341 342 346 347 347 346 348 351 356 357 355 355 355 357 357 356 356 358 357
303 299 306 313 321 325 326 328 327 327 321 328 344 343 346 349 348 345 345 347 354 356 356 355 355 354 355 357 356 356 356 357
297 310 319 323 324 327 322 323 322 324 322 331 344 348 349 348 348 345 346 347 349 355 355 355 355 354 354 356 356 356 357 355
295 312 321 324 327 326 325 327 324 323 325 328 345 346 348 349 347 347 346 346 348 354 355 356 355 355 355 356 356 356 357 355
297 313 319 322 326 319 320 324 328 332 321 326 341 347 348 347 347 347 347 344 344 347 350 354 355 355 354 355 356 357 356 356
295 306 315 324 324 324 323 324 334 336 321 321 339 346 346 346 346 345 345 344 340 341 344 346 347 354 354 354 355 356 356 355
295 316 317 323 321 329 328 325 325 328 329 335 344 344 342 341 341 343 345 342 340 340 337 341 343 349 354 355 354 354 354 355
320 324 321 327 324 323 323 320 322 327 329 331 331 330 329 328 325 325 328 331 331 337 340 341 345 343 343 345 345 347 347 346
326 327 324 320 323 328 322 320 324 320 321 323 323 322 322 321 321 320 321 322 323 328 334 338 339 342 341 342 343 343 344 343
326 327 324 324 327 322 323 320 323 321 321 320 318 317 318 318 319 318 317 319 320 322 323 329 337 341 340 338 339 339 339 340
329 326 325 323 317 315 313 317 318 318 318 316 315 315 316 317 317 316 315 315 316 317 319 322 324 327 338 341 338 336 337 337
325 321 318 315 315 314 313 315 313 313 312 313 313 313 313 313 313 313 314 313 315 315 315 318 319 323 335 337 336 331 326 327
316 316 315 314 308 309 312 313 310 310 310 311 312 312 311 312 311 311 312 313 312 315 315 315 317 321 325 326 323 321 320 321
312 314 314 310 300 309 311 309 308 310 309 308 309 310 311 312 311 312 311 311 312 314 313 313 314 317 320 320 319 318 317 319
307 312 312 308 302 309 310 309 307 307 307 307 307 308 309 311 311 311 311 311 310 312 311 312 312 315 316 316 317 315 317 318
301 308 307 304 303 308 309 308 306 305 305 305 306 306 310 311 312 312 311 311 310 310 310 311 312 313 315 314 315 313 316 316
298 307 302 303 304 306 308 306 303 303 302 302 304 307 310 311 312 311 310 309 309 308 308 309 310 310 312 310 310 311 313 314
300 303 302 302 303 304 306 304 303 302 302 302 302 303 306 307 309 308 308 307 307 307 306 307 308 308 310 310 310 311 309 309
297 302 303 302 297 301 303 303 304 303 302 302 301 301 303 304 305 306 306 306 306 308 308 306 307 307 306 306 306 306 305 306
301 297 292 299 289 295 299 300 301 300 299 300 300 301 302 303 303 304 305 306 306 306 307 307 306 304 302 302 301 301 301 303
Wind_Speed
5 4 5 5 5 13 13 10 4 5 5 5 5 15 7 12 15 10 8 8 10 15 15 16 16 15 13 12 11 11 12 11
5 4 5 6 22 8 8 2 6 9 8 6 9 6 11 16 13 11 8 7 13 15 14 15 15 14 13 11 11 10 9 9
3 1 6 15 15 6 11 7 12 11 10 7 11 21 21 18 15 13 8 6 8 14 14 14 14 13 12 10 9 10 8 7
2 6 9 8 3 22 15 15 17 15 16 6 19 21 16 16 13 11 12 7 7 13 13 12 12 12 10 9 7 8 8 7
8 10 10 4 2 4 13 11 5 7 10 8 17 17 16 14 13 11 10 7 6 6 10 12 12 10 9 8 7 8 7 8
2 11 8 9 6 6 15 7 3 5 6 5 18 18 15 13 11 8 6 5 5 5 6 6 7 13 12 11 10 9 9 9
1 10 8 13 6 2 6 7 3 5 6 14 18 15 13 11 8 6 5 5 3 3 1 2 2 7 12 14 12 11 9 9
3 22 16 12 10 11 8 6 4 7 19 19 20 16 17 15 11 11 12 9 8 3 2 4 4 3 3 4 4 5 6 6
12 16 18 14 4 3 15 5 5 13 13 15 20 16 17 13 13 9 8 9 10 9 6 3 2 3 1 3 3 3 5 5
16 14 12 10 9 15 13 9 14 14 13 16 17 16 13 11 11 10 10 11 9 7 6 7 5 3 4 3 4 4 5 6
18 10 16 17 12 15 14 13 14 16 17 15 14 14 13 10 10 8 8 7 7 8 7 6 5 4 4 5 5 6 5 8
17 16 15 23 10 6 6 13 14 16 15 13 13 11 11 10 8 9 8 9 7 8 8 5 5 5 5 6 7 8 8 7
16 12 11 16 6 8 12 15 14 14 11 12 11 11 11 8 9 7 6 7 10 9 9 9 7 6 7 7 7 7 6 9
12 16 12 5 5 8 11 15 13 11 10 9 11 11 9 9 8 8 7 10 9 9 9 8 7 6 6 6 7 7 7 7
10 11 9 4 8 14 11 13 13 12 10 9 9 10 8 9 8 8 7 7 9 9 9 7 7 5 6 7 8 6 7 7
12 16 5 8 7 18 15 14 12 10 9 7 9 9 9 9 9 7 7 7 7 7 9 7 5 4 6 7 7 8 8 7
9 10 7 7 13 22 17 13 13 10 10 9 9 7 9 9 8 8 7 8 7 8 8 6 4 3 5 6 5 7 8 13
7 9 8 11 12 9 16 15 16 16 13 13 10 8 8 8 8 7 6 6 7 7 7 6 4 3 3 3 4 3 6 11
7 9 8 15 3 9 6 6 13 13 15 14 14 12 9 9 7 6 6 5 6 5 6 6 7 4 4 4 5 7 7 8
11 7 8 6 7 8 8 10 13 15 14 14 13 10 9 10 6 7 5 5 5 6 6 7 7 6 7 6 7 4 4 6
Wind_Direction
121 110 174 167 30 121 85 48 100 64 14 55 103 124 120 120 134 134 123 120 133 132 132 132 129 123 121 120 118 115 107 111
64 300 234 220 160 178 133 158 91 135 59 55 131 108 124 137 130 131 124 124 133 135 131 132 128 126 124 122 118 112 107 104
57 304 31 36 112 55 103 97 77 83 94 72 72 117 132 137 141 140 129 132 132 137 136 133 132 130 129 129 131 136 120 114
101 81 26 50 342 117 110 105 105 89 92 94 134 128 140 139 143 144 137 140 144 141 138 137 138 135 131 129 135 130 133 151
158 129 110 124 179 212 117 130 81 113 100 127 137 138 142 140 138 138 136 142 143 139 145 146 144 142 143 147 158 155 168 176
358 131 132 165 163 150 103 74 351 324 143 145 144 147 135 133 125 123 142 144 143 148 152 155 165 163 169 175 184 183 195 199
183 113 134 153 157 286 40 86 360 12 84 135 143 130 131 119 102 100 101 71 84 133 172 205 186 185 183 191 194 201 211 224
56 124 151 164 166 157 137 151 175 83 72 75 79 75 79 71 62 57 55 59 34 345 200 218 199 223 258 230 212 209 213 218
114 137 141 141 89 19 138 116 24 114 92 77 80 69 70 70 64 47 34 50 25 25 12 11 314 170 243 266 274 253 249 241
160 166 147 119 127 72 69 84 93 85 82 79 73 74 67 62 60 49 38 36 31 21 16 17 20 18 262 232 226 233 236 247
145 157 111 106 82 105 87 84 83 85 70 67 76 77 73 64 58 50 44 33 26 23 25 17 18 358 5 16 38 42 24 30
144 145 127 112 125 88 114 103 82 74 75 72 68 74 76 68 61 48 32 22 16 27 16 13 24 16 47 62 42 48 42 31
148 139 120 102 34 140 143 112 100 94 88 80 78 68 69 67 58 47 32 26 24 24 8 17 20 27 46 52 64 59 46 34
224 160 167 99 194 170 150 123 124 119 109 102 98 95 82 76 62 42 37 25 17 16 17 15 16 29 56 49 58 48 44 44
191 237 150 101 138 184 163 143 146 142 135 121 107 94 86 80 70 50 42 29 17 9 12 8 14 25 45 57 63 38 42 37
168 210 166 137 186 165 170 158 156 144 128 119 112 112 113 95 77 61 41 35 20 12 12 357 359 29 48 55 58 49 46 34
226 192 101 165 157 174 170 159 154 148 137 132 121 111 102 93 82 68 38 34 23 20 3 10 5 18 43 58 47 47 43 39
277 187 103 160 161 154 171 170 161 150 147 142 132 119 106 94 85 77 63 38 31 21 19 15 12 1 48 78 41 46 45 47
199 88 49 109 25 187 188 141 158 157 148 145 143 138 131 117 107 93 75 57 47 23 16 26 22 25 29 42 40 42 32 45
157 130 176 191 209 216 193 177 170 158 151 144 142 132 132 132 124 120 112 88 67 53 36 39 32 48 59 67 66 36 38 49